Regional Weather Roundup
Issued by NWS

Home | Current Version | Previous Version | Text Only | Print | Product List | Glossary On
Versions: 1 2 3 4 5 6 7 8 9 10 11 12 13 14 15 16 17 18 19 20 21 22 23 24 25 26 27 28 29 30 31 32 33 34 35 36 37 38 39 40 41 42 43 44 45 46 47 48 49 50
000
ASUS46 KPQR 281210
RWROR

OREGON REGIONAL WEATHER ROUNDUP
NATIONAL WEATHER SERVICE PORTLAND OR
400 AM PST WED JAN 28 2015

NOTE: "FAIR" INDICATES FEW OR NO CLOUDS BELOW 12,000 FEET WITH
NO SIGNIFICANT WEATHER AND/OR OBSTRUCTIONS TO VISIBILITY.

ORZ001>013-281300-
NORTHWEST OREGON


CITY           SKY/WX    TMP DP  RH WIND       PRES   REMARKS
ASTORIA        PTCLDY    43  41  93 E5        30.30F
6HR MIN TEMP:  43; 6HR MAX TEMP:  48;

NEWPORT        CLOUDY    50  50 100 E5        30.31S
PORTLAND       DRIZZLE   47  47 100 W5        30.32S FOG
6HR MIN TEMP:  46; 6HR MAX TEMP:  49; 6HR PCP:  0.07;

VANCOUVER WA   CLOUDY    48  47  96 CALM      30.32R FOG
6HR MIN TEMP:  47; 6HR MAX TEMP:  49; 6HR PCP:  0.02;

SCAPPOOSE      CLOUDY    48  46  93 CALM      30.32R FOG
6HR MIN TEMP:  47; 6HR MAX TEMP:  48;

HILLSBORO      LGT RAIN  46  46 100 CALM      30.31S FOG
6HR MIN TEMP:  46; 6HR MAX TEMP:  47; 6HR PCP:  0.06;

AURORA         CLOUDY    45  45 100 N3        30.32R FOG
6HR MIN TEMP:  45; 6HR MAX TEMP:  49; 6HR PCP:  0.02;

MCMINNVILLE    CLOUDY    48  47  96 N5        30.32R FOG
6HR MIN TEMP:  48; 6HR MAX TEMP:  49; 6HR PCP:  0.01;

SALEM          FOG       47  45  93 CALM      30.29S VSB 1/2
6HR MIN TEMP:  47; 6HR MAX TEMP:  52;

CORVALLIS      CLOUDY    48  45  87 CALM      30.31S VSB<1/4
EUGENE         MOCLDY    47  45  93 CALM      30.30S
6HR MIN TEMP:  45; 6HR MAX TEMP:  51;

$$

ORZ021-028-281300-
SOUTHWEST OREGON


CITY           SKY/WX    TMP DP  RH WIND       PRES   REMARKS
NORTH BEND     CLOUDY    50  48  93 SE6       30.28F
6HR MIN TEMP:  48; 6HR MAX TEMP:  50;

BROOKINGS      PTCLDY    46  46 100 CALM      30.27S
ROSEBURG       CLOUDY    45  43  93 CALM      30.30S
6HR MIN TEMP:  43; 6HR MAX TEMP:  50;

SEXTON SUMMIT  PTCLDY    42  33  70 E8        30.26S
6HR MIN TEMP:  42; 6HR MAX TEMP:  44;

MEDFORD        FOG       35  34  96 CALM      30.30S VSB 1/4
6HR MIN TEMP:  35; 6HR MAX TEMP:  43;

$$

ORZ014>016-041-281300-
COLUMBIA GORGE


CITY           SKY/WX    TMP DP  RH WIND       PRES   REMARKS
TROUTDALE      CLOUDY    49  47  93 W3        30.31R FOG
6HR MIN TEMP:  48; 6HR MAX TEMP:  51; 6HR PCP: TRACE;

THE DALLES     CLOUDY    47  42  83 CALM      30.29R
6HR MIN TEMP:  45; 6HR MAX TEMP:  50;

$$

ORZ029>031-041-044-049-050-061>064-502-503-505>511-281300-
EASTERN OREGON


CITY           SKY/WX    TMP DP  RH WIND       PRES   REMARKS
REDMOND        PTCLDY    30  28  92 CALM      30.27R
6HR MIN TEMP:  29; 6HR MAX TEMP:  41;

BEND           PTCLDY    34  32  93 CALM      30.28R
PRINEVILLE     PTCLDY    30  30 100 CALM      30.28R
KLAMATH FALLS  PTCLDY    30  28  92 CALM      30.29F
6HR MIN TEMP:  30; 6HR MAX TEMP:  41;

LAKEVIEW       CLOUDY    30  27  86 N5        30.32F WCI  25
HERMISTON      FOG       32  32 100 CALM      30.29R VSB 1/4
6HR MIN TEMP:  31; 6HR MAX TEMP:  37;

PENDLETON      MOCLDY    43  38  82 S6        30.27R
6HR MIN TEMP:  41; 6HR MAX TEMP:  45;

JOHN DAY       CLOUDY    39  35  84 CALM      30.28R
MEACHAM        CLOUDY    40  36  86 CALM      30.26R
6HR MIN TEMP:  34; 6HR MAX TEMP:  41;

LA GRANDE      CLOUDY    37  28  70 CALM      30.26R
6HR MIN TEMP:  36; 6HR MAX TEMP:  43;

BAKER CITY     PTCLDY    27  26  96 NW3       30.27R FOG
6HR MIN TEMP:  25; 6HR MAX TEMP:  32;

BURNS          CLOUDY    30  28  92 CALM      30.29R
6HR MIN TEMP:  29; 6HR MAX TEMP:  32;

ROME             N/A     37  33  85 S3        30.25R
6HR MIN TEMP:  33; 6HR MAX TEMP:  38;

ONTARIO        FOG       31  29  92 CALM      30.31R VSB 3/4
6HR MIN TEMP:  30; 6HR MAX TEMP:  36;

$$



USA.gov is the U.S. government's official web portal to all federal, state and local government web resources and services.